TimeMST,TemperatureF,Dew PointF,Humidity,Sea Level PressureIn,VisibilityMPH,Wind Direction,Wind SpeedMPH,Gust SpeedMPH,PrecipitationIn,Events,Conditions,WindDirDegrees,DateUTC
12:56 AM,55.9,28.0,34,29.90,10.0,ENE,5.8,-,N/A,,Clear,70,2012-10-08 07:56:00
1:56 AM,57.0,28.9,34,29.89,10.0,Calm,Calm,-,N/A,,Clear,0,2012-10-08 08:56:00
2:56 AM,54.0,28.0,37,29.89,10.0,SE,3.5,-,N/A,,Clear,140,2012-10-08 09:56:00
3:56 AM,52.0,27.0,38,29.90,10.0,Calm,Calm,-,N/A,,Clear,0,2012-10-08 10:56:00
4:56 AM,51.1,28.0,41,29.92,10.0,NE,4.6,-,N/A,,Clear,40,2012-10-08 11:56:00
5:56 AM,48.0,27.0,44,29.95,10.0,Calm,Calm,-,N/A,,Clear,0,2012-10-08 12:56:00
6:56 AM,51.1,28.0,41,29.98,10.0,Calm,Calm,-,N/A,,Clear,0,2012-10-08 13:56:00
7:56 AM,61.0,30.9,32,29.98,10.0,Calm,Calm,-,N/A,,Clear,0,2012-10-08 14:56:00
8:56 AM,68.0,30.9,25,29.98,10.0,SE,3.5,-,N/A,,Clear,130,2012-10-08 15:56:00
9:56 AM,75.0,30.9,20,29.96,10.0,South,8.1,-,N/A,,Clear,180,2012-10-08 16:56:00
10:56 AM,79.0,32.0,18,29.95,10.0,South,8.1,-,N/A,,Clear,190,2012-10-08 17:56:00
11:56 AM,80.1,32.0,17,29.93,10.0,South,11.5,16.1,N/A,,Clear,170,2012-10-08 18:56:00
12:56 PM,82.4,32.0,16,30.07,10.0,South,8.1,-,N/A,,Clear,170,2012-10-08 19:56:00
1:56 PM,84.0,30.9,15,29.86,10.0,West,5.8,-,N/A,,Clear,260,2012-10-08 20:56:00
2:56 PM,86.0,28.0,12,29.84,10.0,South,8.1,-,N/A,,Clear,180,2012-10-08 21:56:00
3:56 PM,86.0,24.1,10,29.84,10.0,SW,9.2,-,N/A,,Clear,230,2012-10-08 22:56:00
4:56 PM,84.9,23.0,10,29.85,10.0,WSW,9.2,-,N/A,,Clear,250,2012-10-08 23:56:00
5:56 PM,79.0,24.1,13,29.87,10.0,SW,8.1,-,N/A,,Clear,230,2012-10-09 00:56:00
6:56 PM,73.4,24.8,16,30.03,10.0,SW,9.2,-,N/A,,Clear,220,2012-10-09 01:56:00
7:56 PM,71.1,26.1,19,29.89,10.0,WSW,5.8,-,N/A,,Clear,240,2012-10-09 02:56:00
8:56 PM,68.0,27.0,21,29.91,10.0,Variable,5.8,-,N/A,,Clear,0,2012-10-09 03:56:00
9:56 PM,64.9,32.0,29,29.92,10.0,Calm,Calm,-,N/A,,Clear,0,2012-10-09 04:56:00
10:56 PM,61.0,30.9,32,29.93,10.0,Variable,3.5,-,N/A,,Clear,0,2012-10-09 05:56:00
11:56 PM,62.1,30.9,31,29.92,10.0,SE,5.8,-,N/A,,Clear,140,2012-10-09 06:56:00